Regional Weather Roundup
Issued by NWS State College, PA

Home | Current Version | Previous Version | Text Only | Print | Product List | Glossary On
Versions: 1 2 3 4 5 6 7 8 9 10 11 12 13 14 15 16 17 18 19 20 21 22 23 24 25 26 27 28 29 30 31 32 33 34 35 36 37 38 39 40 41 42 43 44 45 46 47 48 49 50
000
ASUS41 KCTP 242010
RWRCTP
REGIONAL WEATHER ROUNDUP
NATIONAL WEATHER SERVICE STATE COLLEGE PA
400 PM EDT SUN SEP 24 2017

Note: "fair" indicates few or no clouds below 12,000 feet with no
significant weather and/or obstructions to visibility.

* = STATION THAT DOES NOT REPORT PRECIPITATION /E.G. RAIN...SNOW...ETC/
    THUNDER OR FOG.

PAZ002>004-007>009-013>016-020>023-029>032-242100-
WESTERN PENNSYLVANIA

CITY           SKY/WX    TMP DP  RH WIND       PRES   REMARKS
ERIE           SUNNY     81  68  64 N7        30.12F
MEADVILLE      SUNNY     89  61  38 VRB3      30.14F
FRANKLIN*      SUNNY     87  63  44 NE6       30.15F
NEW CASTLE     FAIR      91  61  36 VRB5      30.12F HAZE
BEAVER COUNTY  SUNNY     90  59  35 E3        30.13S
BUTLER*        SUNNY     87  64  46 VRB3      30.12F
PITTSBURGH INT MOSUNNY   89  59  36 E12       30.11F
PITTSBURGH     SUNNY     87  60  40 VRB5      30.11F
INDIANA*       SUNNY     88  63  42 E6        30.15S
LATROBE        SUNNY     86  64  48 E9        30.12F
WASHINGTON CO* SUNNY     88  61  40 E10       30.12F
$$

PAZ004>006-010>012-017>019-024>028-033>037-041-042-045-046-049>053-242100-
CENTRAL PENNSYLVANIA

CITY           SKY/WX    TMP DP  RH WIND       PRES   REMARKS
BRADFORD       SUNNY     85  63  47 VRB3      30.18F
DUBOIS         SUNNY     86  58  38 VRB6      30.14F
CLEARFIELD     SUNNY     89  62  40 E10       30.13F
JOHNSTOWN      SUNNY     84  60  44 NE9       30.17F
ALTOONA        SUNNY     88  65  46 E6        30.13F
STATE COLLEGE  SUNNY     86  64  48 NE8       30.11F
WILLIAMSPORT   SUNNY     94  63  35 NE7       30.04F HX  95
SELINSGROVE    SUNNY     89  69  51 VRB3      30.06F
FT INDIANTOWN  SUNNY     89  65  44 NE7       30.05F
CAPITAL CITY   PTSUNNY   90  64  42 NE6       30.04F
HARRISBURG     MOSUNNY   88  72  58 SW3       30.03F
YORK           MOSUNNY   87  67  51 NE6       30.06F
$$

PAZ038>040-043-044-047-048-054-055-060>062-067>071-242100-
EASTERN PENNSYLVANIA

CITY           SKY/WX    TMP DP  RH WIND       PRES   REMARKS
SCRANTON       SUNNY     90  64  42 MISG      30.08F
MOUNT POCONO   SUNNY     85  63  47 NE9       30.13F
ALLENTOWN      SUNNY     90  64  42 NE6       30.04F
QUAKERTOWN*    CLEAR     90  66  45 E5        30.06F
READING        SUNNY     90  65  43 E6        30.03F
LANCASTER      SUNNY     89  67  47 E7        30.05F
COATESVILLE    CLEAR     86  64  48 N6        30.08F
POTTSTOWN      SUNNY     87  65  47 NE6       30.06F
BLUE BELL      SUNNY     88  66  48 CALM      30.05F
DOYLESTOWN     SUNNY     90  66  45 NE6       30.04F
WILLOW GROVE   NOT AVBL
NORTH PHILA    SUNNY     91  65  41 VRB6      30.04F
PHILADELPHIA   MOSUNNY   91  64  40 E7        30.02F
$$



USA.gov is the U.S. government's official web portal to all federal, state and local government web resources and services.